Terminal Aerodrome Forecast
Issued by NWS

Home | Current Version | Previous Version | Text Only | Print | Product List | Glossary On
Versions: 1 2 3 4 5 6 7 8 9 10 11 12
000
FTUS45 KCYS 260520
TAFLAR
TAF
KLAR 260520Z 2606/2706 20010KT P6SM SKC
     FM261400 24018G30KT P6SM SCT025
     FM261600 25022G34KT P6SM SCT035
     FM270000 28012KT P6SM SCT060 BKN250=

USA.gov is the U.S. government's official web portal to all federal, state and local government web resources and services.